Location: Unspecified
(0.0000°N, 0.0000°E)
Time: 14:32:21
(UTC+00:00)

deb Midas V - Pass Details

Date: 15 April 2026
Orbit: 2771 x 3389 km, 86.6° (Epoch: 16 May)

Event Time Altitude Azimuth Distance (km) Brightness Sun altitude
Rises 20:55:24 0° 324° (NW) 7,346 ? -43.0°
Reaches altitude 10° 21:03:21 10° 302° (WNW) 6,244 ? -45.0°
Maximum altitude 21:10:41 14° 275° (W) 5,794 ? -46.7°
Drops below altitude 10° 21:17:55 10° 248° (WSW) 6,038 ? -48.5°
Sets 21:25:39 0° 224° (SW) 6,934 ? -50.3°
